,,Stat6,,Stat2,,Stat8,,Stat9,,Stat10,,Wind1,,Wind1,
time,status,PA1M_AVG,status,PR1M_SUM,status,RH1M_AVG,status,SR1M_AVG,status,TA1M_AVG,status,W1dAve1m,status,W1sAve1m,
2006-03-01, 00:00:00,VALID,918.486,VALID,0,VALID,94.6633,VALID,-0.0679233,VALID,17.9618,VALID,127,VALID,0.957589,
2006-03-01, 00:01:00,VALID,918.486,VALID,0,VALID,94.9113,VALID,-0.0509425,VALID,17.9415,VALID,127,VALID,0.97237,
2006-03-01, 00:02:00,VALID,918.473,VALID,0,VALID,94.9558,VALID,0,VALID,17.935,VALID,127,VALID,0.950893,
2006-03-01, 00:03:00,VALID,918.476,VALID,0,VALID,95.0168,VALID,-0.0849042,VALID,17.8997,VALID,127,VALID,0.963224,
2006-03-01, 00:04:00,VALID,918.466,VALID,0,VALID,95.4072,VALID,-0.0509425,VALID,17.8806,VALID,131,VALID,0.862723,
2006-03-01, 00:05:00,VALID,918.459,VALID,0,VALID,95.3093,VALID,-0.0849042,VALID,17.8284,VALID,131,VALID,0.360283,
2006-03-01, 00:06:00,VALID,918.453,VALID,0,VALID,95.2228,VALID,-0.0679233,VALID,17.7866,VALID,131,VALID,0.544017,
2006-03-01, 00:07:00,VALID,918.443,VALID,0,VALID,95.4403,VALID,-0.0849042,VALID,17.7377,VALID,128,VALID,0.787109,
2006-03-01, 00:08:00,VALID,918.445,VALID,0,VALID,95.8841,VALID,0.0169808,VALID,17.6951,VALID,122,VALID,0.87718,
2006-03-01, 00:09:00,VALID,918.438,VALID,0,VALID,96.2554,VALID,0.0169808,VALID,17.6526,VALID,126,VALID,0.886814,
2006-03-01, 00:10:00,VALID,918.436,VALID,0,VALID,95.8103,VALID,0.0339617,VALID,17.6012,VALID,117,VALID,0.681996,
2006-03-01, 00:11:00,VALID,918.411,VALID,0,VALID,96.0697,VALID,0.0339617,VALID,17.5049,VALID,101,VALID,0.849564,
2006-03-01, 00:12:00,VALID,918.37,VALID,0,VALID,97.0527,VALID,0.0679233,VALID,17.4819,VALID,96,VALID,0.900073,
2006-03-01, 00:13:00,VALID,918.35,VALID,0,VALID,97.9848,VALID,0.0169808,VALID,17.5303,VALID,96,VALID,1.10565,
2006-03-01, 00:14:00,VALID,918.328,VALID,0,VALID,97.9314,VALID,0.0169808,VALID,17.5758,VALID,102,VALID,0.986555,
2006-03-01, 00:15:00,VALID,918.315,VALID,0,VALID,97.4545,VALID,0.0169808,VALID,17.5822,VALID,92,VALID,0.748285,
2006-03-01, 00:16:00,VALID,918.302,VALID,0,VALID,96.9777,VALID,0,VALID,17.5405,VALID,92,VALID,0.693598,
2006-03-01, 00:17:00,VALID,918.301,VALID,0,VALID,97.1836,VALID,0.0169808,VALID,17.4687,VALID,92,VALID,0.884722,
2006-03-01, 00:18:00,VALID,918.319,VALID,0,VALID,96.8378,VALID,0.0169808,VALID,17.4371,VALID,92,VALID,0.607376,
2006-03-01, 00:19:00,VALID,918.305,VALID,0,VALID,97.424,VALID,0.0339617,VALID,17.3594,VALID,96,VALID,0.74721,
2006-03-01, 00:20:00,VALID,918.302,VALID,0,VALID,98.178,VALID,0.0169808,VALID,17.3822,VALID,97,VALID,0.790737,
2006-03-01, 00:21:00,VALID,918.262,VALID,0,VALID,98.4845,VALID,0.0509425,VALID,17.3953,VALID,97,VALID,0.911932,
2006-03-01, 00:22:00,VALID,918.238,VALID,0,VALID,98.7159,VALID,0,VALID,17.3949,VALID,88,VALID,1.03582,
2006-03-01, 00:23:00,VALID,918.212,VALID,0,VALID,99.0389,VALID,0.0339617,VALID,17.4173,VALID,92,VALID,1.17683,
2006-03-01, 00:24:00,VALID,918.217,VALID,0,VALID,99.278,VALID,0.0339617,VALID,17.4533,VALID,96,VALID,1.10102,
2006-03-01, 00:25:00,VALID,918.204,VALID,0,VALID,99.311,VALID,0.0339617,VALID,17.4823,VALID,96,VALID,1.11337,
2006-03-01, 00:26:00,VALID,918.202,VALID,0,VALID,99.6506,VALID,0.0509425,VALID,17.5308,VALID,101,VALID,1.32161,
2006-03-01, 00:27:00,VALID,918.188,VALID,0,VALID,99.512,VALID,0.0169808,VALID,17.5691,VALID,101,VALID,1.20675,
2006-03-01, 00:28:00,VALID,918.203,VALID,0,VALID,99.1457,VALID,0.0339617,VALID,17.5691,VALID,89,VALID,0.941034,
2006-03-01, 00:29:00,VALID,918.193,VALID,0,VALID,98.9804,VALID,0.0169808,VALID,17.5527,VALID,87,VALID,1.0625,
2006-03-01, 00:30:00,VALID,918.175,VALID,0,VALID,98.749,VALID,0.0339617,VALID,17.5271,VALID,87,VALID,1.01101,
2006-03-01, 00:31:00,VALID,918.152,VALID,0,VALID,98.7859,VALID,0.0679233,VALID,17.4918,VALID,87,VALID,1.1351,
2006-03-01, 00:32:00,VALID,918.129,VALID,0,VALID,98.9168,VALID,0.0509425,VALID,17.4726,VALID,87,VALID,1.04492,
2006-03-01, 00:33:00,VALID,918.122,VALID,0,VALID,99.1648,VALID,0.0679233,VALID,17.4498,VALID,95,VALID,1.18484,
2006-03-01, 00:34:00,VALID,918.111,VALID,0,VALID,99.4725,VALID,0.0679233,VALID,17.4692,VALID,108,VALID,1.23921,
2006-03-01, 00:35:00,VALID,918.091,VALID,0,VALID,99.2169,VALID,0.0339617,VALID,17.4593,VALID,114,VALID,1.33249,
2006-03-01, 00:36:00,VALID,918.066,VALID,0,VALID,99.1368,VALID,0.0339617,VALID,17.4431,VALID,108,VALID,1.25254,
2006-03-01, 00:37:00,VALID,918.04,VALID,0,VALID,99.2297,VALID,0.0679233,VALID,17.4371,VALID,95,VALID,1.12329,
2006-03-01, 00:38:00,VALID,918.01,VALID,0,VALID,99.2386,VALID,0.0339617,VALID,17.4205,VALID,100,VALID,0.97904,
2006-03-01, 00:39:00,VALID,918.002,VALID,0,VALID,98.8545,VALID,0.0339617,VALID,17.3884,VALID,116,VALID,1.27416,
2006-03-01, 00:40:00,VALID,917.974,VALID,0,VALID,99.0809,VALID,0.0339617,VALID,17.3561,VALID,121,VALID,1.30742,
2006-03-01, 00:41:00,VALID,917.967,VALID,0,VALID,99.3759,VALID,0.0509425,VALID,17.3527,VALID,120,VALID,1.19417,
2006-03-01, 00:42:00,VALID,917.963,VALID,0,VALID,99.4547,VALID,0.0679233,VALID,17.3686,VALID,121,VALID,1.13207,
2006-03-01, 00:43:00,VALID,917.965,VALID,0,VALID,99.3009,VALID,0.0339617,VALID,17.3527,VALID,120,VALID,1.12664,
2006-03-01, 00:44:00,VALID,917.968,VALID,0,VALID,99.2754,VALID,0.0339617,VALID,17.3368,VALID,120,VALID,1.15075,
2006-03-01, 00:45:00,VALID,917.961,VALID,0,VALID,99.3937,VALID,0.0169808,VALID,17.3398,VALID,120,VALID,1.31622,
2006-03-01, 00:46:00,VALID,917.954,VALID,0,VALID,99.5196,VALID,0.0509425,VALID,17.3656,VALID,120,VALID,1.31268,
2006-03-01, 00:47:00,VALID,917.95,VALID,0,VALID,99.5641,VALID,0.0339617,VALID,17.3887,VALID,120,VALID,1.32969,
2006-03-01, 00:48:00,VALID,917.951,VALID,0,VALID,99.5247,VALID,0.0339617,VALID,17.4072,VALID,116,VALID,1.29869,
2006-03-01, 00:49:00,VALID,917.951,VALID,0,VALID,99.62,VALID,-0.0339617,VALID,17.4509,VALID,116,VALID,1.26582,
2006-03-01, 00:50:00,VALID,917.939,VALID,0,VALID,99.2271,VALID,-0.0339617,VALID,17.4576,VALID,123,VALID,1.25223,
2006-03-01, 00:51:00,VALID,917.917,VALID,0,VALID,99.1318,VALID,-0.0849042,VALID,17.4444,VALID,131,VALID,1.22923,
2006-03-01, 00:52:00,VALID,917.878,VALID,0,VALID,99.1432,VALID,-0.0509425,VALID,17.4423,VALID,131,VALID,1.13926,
2006-03-01, 00:53:00,VALID,917.846,VALID,0,VALID,99.1674,VALID,-0.0509425,VALID,17.4057,VALID,128,VALID,1.29015,
2006-03-01, 00:54:00,VALID,917.817,VALID,0,VALID,99.8324,VALID,-0.0169808,VALID,17.4544,VALID,121,VALID,1.5367,
2006-03-01, 00:55:00,VALID,917.805,VALID,0,VALID,100,VALID,-0.0509425,VALID,17.5614,VALID,113,VALID,1.70149,
2006-03-01, 00:56:00,VALID,917.783,VALID,0,VALID,99.8787,VALID,-0.0849042,VALID,17.674,VALID,111,VALID,1.72711,
2006-03-01, 00:57:00,VALID,917.748,VALID,0,VALID,99.3721,VALID,-0.0679233,VALID,17.7552,VALID,111,VALID,1.56123,
2006-03-01, 00:58:00,VALID,917.718,VALID,0,VALID,98.8787,VALID,-0.101885,VALID,17.7903,VALID,115,VALID,1.52567,
2006-03-01, 00:59:00,VALID,917.718,VALID,0,VALID,98.3065,VALID,-0.0849042,VALID,17.797,VALID,117,VALID,1.36646,
2006-03-01, 01:00:00,VALID,917.727,VALID,0,VALID,97.8245,VALID,-0.0509425,VALID,17.755,VALID,113,VALID,1.21555,
2006-03-01, 01:01:00,VALID,917.731,VALID,0,VALID,97.8792,VALID,-0.0679233,VALID,17.6936,VALID,116,VALID,1.26344,
2006-03-01, 01:02:00,VALID,917.719,VALID,0,VALID,97.8996,VALID,-0.0849042,VALID,17.6422,VALID,113,VALID,1.27096,
2006-03-01, 01:03:00,VALID,917.705,VALID,0,VALID,98.0191,VALID,-0.0509425,VALID,17.5769,VALID,110,VALID,1.30078,
2006-03-01, 01:04:00,VALID,917.697,VALID,0,VALID,98.2721,VALID,-0.0679233,VALID,17.5349,VALID,109,VALID,1.37891,
2006-03-01, 01:05:00,VALID,917.685,VALID,0,VALID,98.3243,VALID,-0.0509425,VALID,17.5091,VALID,110,VALID,1.28052,
2006-03-01, 01:06:00,VALID,917.688,VALID,0,VALID,98.3116,VALID,-0.0679233,VALID,17.4772,VALID,110,VALID,1.2651,
2006-03-01, 01:07:00,VALID,917.7,VALID,0,VALID,98.2556,VALID,-0.0679233,VALID,17.4218,VALID,111,VALID,1.20141,
2006-03-01, 01:08:00,VALID,917.703,VALID,0,VALID,98.0954,VALID,-0.0339617,VALID,17.3766,VALID,114,VALID,1.16387,
2006-03-01, 01:09:00,VALID,917.715,VALID,0,VALID,98.0165,VALID,-0.0169808,VALID,17.3124,VALID,122,VALID,1.06428,
2006-03-01, 01:10:00,VALID,917.717,VALID,0,VALID,98.2187,VALID,-0.0849042,VALID,17.2506,VALID,131,VALID,1.03068,
2006-03-01, 01:11:00,VALID,917.713,VALID,0,VALID,98.5328,VALID,-0.0849042,VALID,17.2091,VALID,134,VALID,1.09702,
2006-03-01, 01:12:00,VALID,917.701,VALID,0,VALID,98.7719,VALID,-0.0339617,VALID,17.1862,VALID,131,VALID,0.965116,
2006-03-01, 01:13:00,VALID,917.677,VALID,0,VALID,98.8253,VALID,-0.0509425,VALID,17.1572,VALID,121,VALID,0.997768,
2006-03-01, 01:14:00,VALID,917.656,VALID,0,VALID,99.0377,VALID,-0.0509425,VALID,17.141,VALID,127,VALID,1.0883,
2006-03-01, 01:15:00,VALID,917.648,VALID,0,VALID,99.2551,VALID,-0.0339617,VALID,17.1505,VALID,129,VALID,1.05869,
2006-03-01, 01:16:00,VALID,917.648,VALID,0,VALID,99.2538,VALID,-0.0169808,VALID,17.1539,VALID,129,VALID,0.941229,
2006-03-01, 01:17:00,VALID,917.637,VALID,0,VALID,99.4128,VALID,-0.0339617,VALID,17.1503,VALID,121,VALID,1.03125,
2006-03-01, 01:18:00,VALID,917.63,VALID,0,VALID,99.5005,VALID,-0.0339617,VALID,17.16,VALID,121,VALID,1.01277,
2006-03-01, 01:19:00,VALID,917.605,VALID,0,VALID,99.3568,VALID,-0.0339617,VALID,17.1604,VALID,115,VALID,0.889137,
2006-03-01, 01:20:00,VALID,917.586,VALID,0,VALID,99.3823,VALID,-0.0509425,VALID,17.144,VALID,111,VALID,0.95476,
2006-03-01, 01:21:00,VALID,917.571,VALID,0,VALID,99.3365,VALID,-0.0679233,VALID,17.1408,VALID,117,VALID,1.05625,
2006-03-01, 01:22:00,VALID,917.578,VALID,0,VALID,98.9703,VALID,-0.0169808,VALID,17.1025,VALID,122,VALID,1.25381,
2006-03-01, 01:23:00,VALID,917.567,VALID,0,VALID,98.8838,VALID,0.101885,VALID,17.0756,VALID,121,VALID,1.40511,
2006-03-01, 01:24:00,VALID,917.546,VALID,0,VALID,98.6854,VALID,0.0169808,VALID,17.0463,VALID,120,VALID,1.72747,
2006-03-01, 01:25:00,VALID,917.535,VALID,0,VALID,98.5074,VALID,0.0509425,VALID,17.0818,VALID,115,VALID,1.53232,
2006-03-01, 01:26:00,VALID,917.527,VALID,0,VALID,98.1806,VALID,0.0509425,VALID,17.0977,VALID,119,VALID,1.54794,
2006-03-01, 01:27:00,VALID,917.534,VALID,0,VALID,97.8334,VALID,0.0339617,VALID,17.1135,VALID,121,VALID,1.55107,
2006-03-01, 01:28:00,VALID,917.545,VALID,0,VALID,97.6758,VALID,0.0679233,VALID,17.1367,VALID,127,VALID,1.37949,
2006-03-01, 01:29:00,VALID,917.533,VALID,0,VALID,97.6249,VALID,0.0339617,VALID,17.1593,VALID,126,VALID,1.66104,
2006-03-01, 01:30:00,VALID,917.49,VALID,0,VALID,97.3973,VALID,0.0509425,VALID,17.1819,VALID,122,VALID,1.87313,
2006-03-01, 01:31:00,VALID,917.47,VALID,0,VALID,97.1913,VALID,0.0849042,VALID,17.2145,VALID,121,VALID,1.80487,
2006-03-01, 01:32:00,VALID,917.462,VALID,0,VALID,97.0565,VALID,0.0339617,VALID,17.2076,VALID,121,VALID,1.86137,
2006-03-01, 01:33:00,VALID,917.474,VALID,0,VALID,96.8607,VALID,0.0509425,VALID,17.2368,VALID,120,VALID,1.86701,
2006-03-01, 01:34:00,VALID,917.471,VALID,0,VALID,96.6216,VALID,0.0169808,VALID,17.247,VALID,125,VALID,1.56959,
2006-03-01, 01:35:00,VALID,917.471,VALID,0,VALID,96.6419,VALID,0.0679233,VALID,17.2373,VALID,125,VALID,1.58448,
2006-03-01, 01:36:00,VALID,917.44,VALID,0,VALID,96.7755,VALID,0.0679233,VALID,17.2405,VALID,117,VALID,1.70224,
2006-03-01, 01:37:00,VALID,917.432,VALID,0,VALID,96.7068,VALID,0.0509425,VALID,17.253,VALID,110,VALID,1.77474,
2006-03-01, 01:38:00,VALID,917.411,VALID,0,VALID,96.4525,VALID,-0.0509425,VALID,17.3064,VALID,109,VALID,1.48646,
2006-03-01, 01:39:00,VALID,917.399,VALID,0,VALID,96.2312,VALID,-0.0679233,VALID,17.3193,VALID,120,VALID,1.39098,
2006-03-01, 01:40:00,VALID,917.394,VALID,0,VALID,96.0011,VALID,-0.0849042,VALID,17.3062,VALID,127,VALID,1.31449,
2006-03-01, 01:41:00,VALID,917.386,VALID,0,VALID,95.9769,VALID,-0.101885,VALID,17.2741,VALID,138,VALID,1.01004,
2006-03-01, 01:42:00,VALID,917.38,VALID,0,VALID,96.1791,VALID,-0.0509425,VALID,17.2552,VALID,128,VALID,1.22752,
2006-03-01, 01:43:00,VALID,917.375,VALID,0,VALID,96.2058,VALID,-0.0679233,VALID,17.2356,VALID,130,VALID,1.1092,
2006-03-01, 01:44:00,VALID,917.368,VALID,0,VALID,96.2477,VALID,-0.0679233,VALID,17.2028,VALID,129,VALID,1.1511,
2006-03-01, 01:45:00,VALID,917.367,VALID,0,VALID,96.3228,VALID,-0.0679233,VALID,17.177,VALID,130,VALID,1.17801,
2006-03-01, 01:46:00,VALID,917.36,VALID,0,VALID,96.3291,VALID,-0.0849042,VALID,17.1449,VALID,129,VALID,1.02396,
2006-03-01, 01:47:00,VALID,917.361,VALID,0,VALID,96.4334,VALID,-0.101885,VALID,17.1126,VALID,128,VALID,0.893415,
2006-03-01, 01:48:00,VALID,917.358,VALID,0,VALID,96.5008,VALID,-0.101885,VALID,17.0898,VALID,128,VALID,0.632813,
2006-03-01, 01:49:00,VALID,917.373,VALID,0,VALID,96.5415,VALID,-0.0679233,VALID,17.0736,VALID,143,VALID,1.08594,
2006-03-01, 01:50:00,VALID,917.395,VALID,0,VALID,96.5898,VALID,-0.0509425,VALID,17.0702,VALID,146,VALID,1.09635,
2006-03-01, 01:51:00,VALID,917.412,VALID,0,VALID,96.3126,VALID,-0.0509425,VALID,17.0863,VALID,144,VALID,1.3285,
2006-03-01, 01:52:00,VALID,917.412,VALID,0,VALID,95.9833,VALID,-0.0509425,VALID,17.0999,VALID,142,VALID,1.57569,
2006-03-01, 01:53:00,VALID,917.418,VALID,0,VALID,95.7366,VALID,0.0169808,VALID,17.0956,VALID,136,VALID,1.38654,
2006-03-01, 01:54:00,VALID,917.425,VALID,0,VALID,95.8459,VALID,0.0169808,VALID,17.0855,VALID,128,VALID,1.37465,
2006-03-01, 01:55:00,VALID,917.412,VALID,0,VALID,96.0201,VALID,0.0509425,VALID,17.0952,VALID,123,VALID,1.53725,
2006-03-01, 01:56:00,VALID,917.407,VALID,0,VALID,96.3139,VALID,0,VALID,17.1111,VALID,125,VALID,1.51767,
2006-03-01, 01:57:00,VALID,917.393,VALID,0,VALID,96.2516,VALID,0.0169808,VALID,17.1406,VALID,119,VALID,1.51225,
2006-03-01, 01:58:00,VALID,917.404,VALID,0,VALID,96.1867,VALID,0.0169808,VALID,17.157,VALID,123,VALID,1.2567,
2006-03-01, 01:59:00,VALID,917.401,VALID,0,VALID,96.3647,VALID,0.0169808,VALID,17.1598,VALID,128,VALID,1.15937,
2006-03-01, 02:00:00,VALID,917.392,VALID,0,VALID,96.3253,VALID,0.0169808,VALID,17.1701,VALID,129,VALID,1.09301,
2006-03-01, 02:01:00,VALID,917.39,VALID,0,VALID,96.4143,VALID,0.0509425,VALID,17.1339,VALID,128,VALID,1.10271,
2006-03-01, 02:02:00,VALID,917.366,VALID,0,VALID,97.0896,VALID,0.0339617,VALID,17.1406,VALID,131,VALID,1.35683,
2006-03-01, 02:03:00,VALID,917.345,VALID,0,VALID,96.9192,VALID,0.0169808,VALID,17.1731,VALID,118,VALID,1.2609,
2006-03-01, 02:04:00,VALID,917.319,VALID,0,VALID,97.0247,VALID,0.0169808,VALID,17.1729,VALID,122,VALID,1.35637,
2006-03-01, 02:05:00,VALID,917.299,VALID,0,VALID,97.1341,VALID,0.0169808,VALID,17.1757,VALID,121,VALID,1.33775,
2006-03-01, 02:06:00,VALID,917.278,VALID,0,VALID,97.3566,VALID,0.0509425,VALID,17.2078,VALID,122,VALID,1.52611,
2006-03-01, 02:07:00,VALID,917.279,VALID,0,VALID,97.0717,VALID,0.0509425,VALID,17.2569,VALID,124,VALID,1.57355,
2006-03-01, 02:08:00,VALID,917.278,VALID,0,VALID,96.4538,VALID,0.0169808,VALID,17.2989,VALID,125,VALID,1.52271,
2006-03-01, 02:09:00,VALID,917.276,VALID,0,VALID,95.6603,VALID,0.0169808,VALID,17.3376,VALID,119,VALID,1.23819,
2006-03-01, 02:10:00,VALID,917.267,VALID,0,VALID,95.0613,VALID,0,VALID,17.3501,VALID,113,VALID,1.16074,
2006-03-01, 02:11:00,VALID,917.255,VALID,0,VALID,94.5921,VALID,0.0509425,VALID,17.3533,VALID,114,VALID,1.31548,
2006-03-01, 02:12:00,VALID,917.243,VALID,0,VALID,94.3887,VALID,0.0339617,VALID,17.3439,VALID,114,VALID,1.13969,
2006-03-01, 02:13:00,VALID,917.228,VALID,0,VALID,94.2844,VALID,0.0169808,VALID,17.3245,VALID,98,VALID,1.04778,
2006-03-01, 02:14:00,VALID,917.228,VALID,0,VALID,94.3022,VALID,0.0169808,VALID,17.3081,VALID,100,VALID,0.951563,
2006-03-01, 02:15:00,VALID,917.206,VALID,0,VALID,94.4383,VALID,0.0169808,VALID,17.2926,VALID,110,VALID,1.11663,
2006-03-01, 02:16:00,VALID,917.194,VALID,0,VALID,94.4561,VALID,0.0339617,VALID,17.2795,VALID,113,VALID,1.15389,
2006-03-01, 02:17:00,VALID,917.193,VALID,0,VALID,94.4573,VALID,0.0509425,VALID,17.2638,VALID,115,VALID,1.18075,
2006-03-01, 02:18:00,VALID,917.183,VALID,0,VALID,94.4484,VALID,0.0509425,VALID,17.2179,VALID,117,VALID,1.25341,
2006-03-01, 02:19:00,VALID,917.173,VALID,0,VALID,94.4611,VALID,0.0339617,VALID,17.1957,VALID,126,VALID,1.11052,
2006-03-01, 02:20:00,VALID,917.153,VALID,0,VALID,94.554,VALID,0.0169808,VALID,17.1664,VALID,112,VALID,1.16353,
2006-03-01, 02:21:00,VALID,917.137,VALID,0,VALID,94.5603,VALID,0.0169808,VALID,17.1468,VALID,99,VALID,1.16335,
2006-03-01, 02:22:00,VALID,917.117,VALID,0,VALID,94.6176,VALID,0.0169808,VALID,17.1404,VALID,99,VALID,1.20503,
2006-03-01, 02:23:00,VALID,917.113,VALID,0,VALID,94.8134,VALID,0.0339617,VALID,17.1408,VALID,109,VALID,1.44646,
2006-03-01, 02:24:00,VALID,917.108,VALID,0,VALID,94.8668,VALID,0,VALID,17.1664,VALID,107,VALID,1.47866,
2006-03-01, 02:25:00,VALID,917.114,VALID,0,VALID,94.7155,VALID,0.0169808,VALID,17.2045,VALID,110,VALID,1.36759,
2006-03-01, 02:26:00,VALID,917.117,VALID,0,VALID,94.704,VALID,0.0679233,VALID,17.2435,VALID,107,VALID,1.38318,
2006-03-01, 02:27:00,VALID,917.117,VALID,0,VALID,94.6544,VALID,0.0339617,VALID,17.2799,VALID,103,VALID,1.25284,
2006-03-01, 02:28:00,VALID,917.139,VALID,0,VALID,94.6468,VALID,0.0509425,VALID,17.2793,VALID,111,VALID,1.79439,
2006-03-01, 02:29:00,VALID,917.157,VALID,0,VALID,94.4535,VALID,0.0169808,VALID,17.2922,VALID,119,VALID,2.06032,
2006-03-01, 02:30:00,VALID,917.155,VALID,0,VALID,94.0046,VALID,0,VALID,17.2989,VALID,120,VALID,1.84193,
2006-03-01, 02:31:00,VALID,917.175,VALID,0,VALID,93.6664,VALID,0.0339617,VALID,17.2922,VALID,121,VALID,1.96019,
2006-03-01, 02:32:00,VALID,917.167,VALID,0,VALID,93.3536,VALID,0.0169808,VALID,17.3023,VALID,122,VALID,1.92024,
2006-03-01, 02:33:00,VALID,917.174,VALID,0,VALID,93.2277,VALID,0.0169808,VALID,17.267,VALID,120,VALID,1.8099,
2006-03-01, 02:34:00,VALID,917.178,VALID,0,VALID,93.1717,VALID,0.0339617,VALID,17.234,VALID,117,VALID,1.85211,
2006-03-01, 02:35:00,VALID,917.162,VALID,0,VALID,92.9874,VALID,0.0169808,VALID,17.2282,VALID,110,VALID,1.67578,
2006-03-01, 02:36:00,VALID,917.141,VALID,0,VALID,92.8945,VALID,0.0339617,VALID,17.202,VALID,106,VALID,1.62882,
2006-03-01, 02:37:00,VALID,917.128,VALID,0,VALID,92.8309,VALID,0.0169808,VALID,17.1921,VALID,105,VALID,1.62595,
2006-03-01, 02:38:00,VALID,917.102,VALID,0,VALID,92.6974,VALID,-0.101885,VALID,17.1875,VALID,113,VALID,2.068,
2006-03-01, 02:39:00,VALID,917.087,VALID,0,VALID,92.6885,VALID,-0.135847,VALID,17.152,VALID,117,VALID,1.94141,
2006-03-01, 02:40:00,VALID,917.075,VALID,0,VALID,92.7547,VALID,-0.118866,VALID,17.0868,VALID,110,VALID,1.9154,
2006-03-01, 02:41:00,VALID,917.056,VALID,0,VALID,93.1972,VALID,-0.0849042,VALID,17.0454,VALID,109,VALID,2.04629,
2006-03-01, 02:42:00,VALID,917.038,VALID,0,VALID,93.2201,VALID,-0.101885,VALID,17.0295,VALID,105,VALID,1.59673,
2006-03-01, 02:43:00,VALID,917.008,VALID,0,VALID,93.1806,VALID,-0.101885,VALID,16.9899,VALID,106,VALID,1.60356,
2006-03-01, 02:44:00,VALID,916.987,VALID,0,VALID,93.44,VALID,-0.101885,VALID,16.9774,VALID,105,VALID,1.74375,
2006-03-01, 02:45:00,VALID,916.961,VALID,0,VALID,93.5214,VALID,-0.101885,VALID,16.9715,VALID,107,VALID,1.6503,
2006-03-01, 02:46:00,VALID,916.954,VALID,0,VALID,93.6816,VALID,-0.0849042,VALID,16.9545,VALID,114,VALID,1.67206,
2006-03-01, 02:47:00,VALID,916.954,VALID,0,VALID,93.7338,VALID,-0.118866,VALID,16.9382,VALID,120,VALID,1.55269,
2006-03-01, 02:48:00,VALID,916.956,VALID,0,VALID,93.833,VALID,-0.101885,VALID,16.9285,VALID,124,VALID,1.66902,
2006-03-01, 02:49:00,VALID,916.936,VALID,0,VALID,93.8737,VALID,-0.0849042,VALID,16.9515,VALID,127,VALID,1.58685,
2006-03-01, 02:50:00,VALID,916.919,VALID,0,VALID,93.7656,VALID,-0.0849042,VALID,17.0002,VALID,126,VALID,1.47046,
2006-03-01, 02:51:00,VALID,916.893,VALID,0,VALID,93.852,VALID,-0.118866,VALID,17.0062,VALID,124,VALID,1.47275,
2006-03-01, 02:52:00,VALID,916.878,VALID,0,VALID,94.1064,VALID,-0.0849042,VALID,16.9996,VALID,121,VALID,1.57212,
2006-03-01, 02:53:00,VALID,916.868,VALID,0,VALID,94.278,VALID,-0.101885,VALID,16.9836,VALID,122,VALID,1.375,
2006-03-01, 02:54:00,VALID,916.852,VALID,0,VALID,94.5527,VALID,-0.118866,VALID,16.955,VALID,119,VALID,1.30948,
2006-03-01, 02:55:00,VALID,916.838,VALID,0,VALID,94.8134,VALID,-0.0849042,VALID,16.9029,VALID,110,VALID,1.30487,
2006-03-01, 02:56:00,VALID,916.845,VALID,0,VALID,94.8515,VALID,-0.101885,VALID,16.8839,VALID,104,VALID,1.16016,
2006-03-01, 02:57:00,VALID,916.813,VALID,0,VALID,94.9634,VALID,-0.118866,VALID,16.8417,VALID,101,VALID,1.34466,
2006-03-01, 02:58:00,VALID,916.78,VALID,0,VALID,94.8884,VALID,-0.118866,VALID,16.7971,VALID,100,VALID,1.68102,
2006-03-01, 02:59:00,VALID,916.757,VALID,0,VALID,94.7562,VALID,-0.101885,VALID,16.7676,VALID,102,VALID,1.35865,
2006-03-01, 03:00:00,VALID,916.744,VALID,0,VALID,94.6849,VALID,-0.118866,VALID,16.7487,VALID,104,VALID,1.57871,
2006-03-01, 03:01:00,VALID,916.728,VALID,0,VALID,94.573,VALID,-0.0849042,VALID,16.7418,VALID,111,VALID,1.57107,
2006-03-01, 03:02:00,VALID,916.723,VALID,0,VALID,94.3925,VALID,-0.101885,VALID,16.7485,VALID,115,VALID,1.86537,
2006-03-01, 03:03:00,VALID,916.713,VALID,0,VALID,94.0962,VALID,-0.101885,VALID,16.7709,VALID,117,VALID,1.98583,
2006-03-01, 03:04:00,VALID,916.715,VALID,0,VALID,93.777,VALID,-0.101885,VALID,16.7937,VALID,112,VALID,2.05163,
2006-03-01, 03:05:00,VALID,916.701,VALID,0,VALID,93.4604,VALID,-0.118866,VALID,16.8454,VALID,116,VALID,1.72526,
2006-03-01, 03:06:00,VALID,916.703,VALID,0,VALID,93.4426,VALID,-0.135847,VALID,16.8548,VALID,121,VALID,1.84539,
2006-03-01, 03:07:00,VALID,916.703,VALID,0,VALID,93.6931,VALID,-0.101885,VALID,16.8841,VALID,125,VALID,1.59121,
2006-03-01, 03:08:00,VALID,916.69,VALID,0,VALID,93.9525,VALID,0.0169808,VALID,16.8596,VALID,115,VALID,1.60647,
2006-03-01, 03:09:00,VALID,916.687,VALID,0,VALID,94.3251,VALID,0.0169808,VALID,16.8245,VALID,111,VALID,1.77266,
2006-03-01, 03:10:00,VALID,916.661,VALID,0,VALID,94.6201,VALID,0.0169808,VALID,16.8049,VALID,114,VALID,1.77053,
2006-03-01, 03:11:00,VALID,916.624,VALID,0,VALID,94.7434,VALID,0.0169808,VALID,16.7758,VALID,114,VALID,1.70399,
2006-03-01, 03:12:00,VALID,916.598,VALID,0,VALID,95.0499,VALID,0.0169808,VALID,16.7397,VALID,118,VALID,1.77805,
2006-03-01, 03:13:00,VALID,916.585,VALID,0,VALID,95.2317,VALID,0.0339617,VALID,16.7464,VALID,114,VALID,1.6981,
2006-03-01, 03:14:00,VALID,916.574,VALID,0,VALID,95.2597,VALID,0,VALID,16.7761,VALID,118,VALID,1.79634,
2006-03-01, 03:15:00,VALID,916.545,VALID,0,VALID,95.0181,VALID,0,VALID,16.8211,VALID,120,VALID,1.81752,
2006-03-01, 03:16:00,VALID,916.532,VALID,0,VALID,94.9304,VALID,0.0169808,VALID,16.8211,VALID,119,VALID,1.81159,
2006-03-01, 03:17:00,VALID,916.521,VALID,0,VALID,94.7511,VALID,-0.0509425,VALID,16.8374,VALID,121,VALID,1.88177,
2006-03-01, 03:18:00,VALID,916.498,VALID,0,VALID,94.7028,VALID,0.0339617,VALID,16.8471,VALID,122,VALID,1.54315,
2006-03-01, 03:19:00,VALID,916.497,VALID,0,VALID,94.6214,VALID,0.0509425,VALID,16.8406,VALID,113,VALID,1.51217,
2006-03-01, 03:20:00,VALID,916.503,VALID,0,VALID,94.5692,VALID,0,VALID,16.8245,VALID,115,VALID,1.55832,
2006-03-01, 03:21:00,VALID,916.496,VALID,0,VALID,94.5031,VALID,0,VALID,16.8279,VALID,119,VALID,1.87731,
2006-03-01, 03:22:00,VALID,916.483,VALID,0,VALID,94.3378,VALID,0.0169808,VALID,16.8725,VALID,115,VALID,1.91902,
2006-03-01, 03:23:00,VALID,916.48,VALID,0,VALID,94.1521,VALID,-0.0679233,VALID,16.8897,VALID,112,VALID,1.86626,
2006-03-01, 03:24:00,VALID,916.475,VALID,0,VALID,94.1852,VALID,-0.0849042,VALID,16.9194,VALID,113,VALID,2.08842,
2006-03-01, 03:25:00,VALID,916.465,VALID,0,VALID,94.1013,VALID,-0.0339617,VALID,16.8998,VALID,115,VALID,1.99679,
2006-03-01, 03:26:00,VALID,916.459,VALID,0,VALID,94.1242,VALID,-0.101885,VALID,16.8902,VALID,120,VALID,1.60826,
2006-03-01, 03:27:00,VALID,916.446,VALID,0,VALID,94.0491,VALID,-0.0509425,VALID,16.8385,VALID,127,VALID,1.48397,
2006-03-01, 03:28:00,VALID,916.428,VALID,0,VALID,93.641,VALID,-0.0339617,VALID,16.7672,VALID,125,VALID,1.74163,
2006-03-01, 03:29:00,VALID,916.4,VALID,0,VALID,93.234,VALID,-0.0679233,VALID,16.7347,VALID,133,VALID,1.7338,
2006-03-01, 03:30:00,VALID,916.382,VALID,0,VALID,92.7737,VALID,-0.0679233,VALID,16.7448,VALID,135,VALID,1.98377,
2006-03-01, 03:31:00,VALID,916.363,VALID,0,VALID,92.4368,VALID,-0.0849042,VALID,16.7412,VALID,134,VALID,1.39684,
2006-03-01, 03:32:00,VALID,916.338,VALID,0,VALID,92.2409,VALID,-0.0679233,VALID,16.761,VALID,140,VALID,1.66816,